Lakewood, Ohio, United States (44107)
Lat: 41.48N, Lon: 81.8W
Wx Zone: OHZ011
Local Info
Past Weather Observations for Today

NOTE: This archive is for the closest National Weather Service station to Lakewood. Information may differ from the station used for current weather conditions.

Click here for Long-term Archive

Time Weather Temperature Dewpoint Humidity Pressure Winds Precip Visibility
17:51
Partly Cloudy
37°F / 3°C 28°F / -2°C 70% 29.98 in
(1015 mb)
NNW 11.5 mph
(NNW 19 kph)
- 10SM
16:51
Mostly Cloudy
37°F / 3°C 28°F / -2°C 70% 29.95 in
(1014 mb)
NNW 11.5 mph
(NNW 19 kph)
- 10SM
15:51
Overcast
36°F / 2°C 28°F / -2°C 75% 29.95 in
(1014 mb)
N 13.8 mph
(N 22 kph)
- 10SM
15:17
Overcast
37°F / 3°C 30°F / -1°C 75% 29.92 in
(1013 mb)
N 12.7 mph
(N 20 kph)
- 10SM
14:51
Overcast
37°F / 3°C 30°F / -1°C 75% 29.89 in
(1012 mb)
N 17.3 mph
(N 28 kph)
- 10SM
14:13
Overcast
37°F / 3°C 30°F / -1°C 75% 29.86 in
(1011 mb)
N 20.7 mph
(N 33 kph)
- 10SM
13:51
Overcast
39°F / 4°C 32°F / 0°C 75% 29.83 in
(1010 mb)
NNE 15 mph
(NNE 24 kph)
- 10SM
13:19
Overcast
39°F / 4°C 34°F / 1°C 81% 29.8 in
(1009 mb)
NE 19.6 mph
(NE 32 kph)
- 10SM
13:04
Overcast
39°F / 4°C 34°F / 1°C 81% 29.8 in
(1009 mb)
NE 18.4 mph
(NE 30 kph)
- 10SM
12:51
Overcast
37°F / 3°C 34°F / 1°C 87% 29.8 in
(1009 mb)
N 17.3 mph
(N 28 kph)
- 10SM
11:54
Overcast
37°F / 3°C 34°F / 1°C 87% 29.77 in
(1008 mb)
N 15 mph
(N 24 kph)
- 10SM
11:51
Overcast
37°F / 3°C 34°F / 1°C 87% 29.77 in
(1008 mb)
N 13.8 mph
(N 22 kph)
- 10SM
10:51
Overcast
41°F / 5°C 36°F / 2°C 81% 29.74 in
(1007 mb)
N 12.7 mph
(N 20 kph)
- 10SM
10:23
Overcast
43°F / 6°C 36°F / 2°C 76% 29.71 in
(1006 mb)
NNW 17.3 mph
(NNW 28 kph)
- 10SM
09:51
Overcast
52°F / 11°C 37°F / 3°C 58% 29.68 in
(1005 mb)
W 13.8 mph
(W 22 kph)
- 10SM
08:51
Overcast
48°F / 9°C 37°F / 3°C 66% 29.68 in
(1005 mb)
SW 6.9 mph
(SW 11 kph)
0.00 in
(0.00 mm)
10SM
07:51
Overcast
Light Rain
43°F / 6°C 36°F / 2°C 76% 29.71 in
(1006 mb)
SSE 10.4 mph
(SSE 17 kph)
0.00 in
(0.00 mm)
10SM
06:51
Overcast
Light Rain
41°F / 5°C 34°F / 1°C 76% 29.74 in
(1007 mb)
SE 9.2 mph
(SE 15 kph)
0.01 in
(0.25 mm)
10SM
05:51
Overcast
39°F / 4°C 32°F / 0°C 75% 29.77 in
(1008 mb)
SSE 5.8 mph
(SSE 9 kph)
0.00 in
(0.00 mm)
10SM
04:51
Overcast
39°F / 4°C 34°F / 1°C 81% 29.8 in
(1009 mb)
SSE 11.5 mph
(SSE 19 kph)
- 10SM
03:51
Overcast
39°F / 4°C 36°F / 2°C 87% 29.83 in
(1010 mb)
SSE 8.1 mph
(SSE 13 kph)
0.00 in
(0.00 mm)
10SM
02:51
Overcast
Light Rain
39°F / 4°C 36°F / 2°C 87% 29.89 in
(1012 mb)
SE 8.1 mph
(SE 13 kph)
0.05 in
(1.27 mm)
10SM
01:51
Overcast
Light Rain
39°F / 4°C 34°F / 1°C 81% 29.95 in
(1014 mb)
Variable 4.6 mph
(Variable 7 kph)
0.02 in
(0.51 mm)
10SM
00:51
Overcast
Light Rain
39°F / 4°C 28°F / -2°C 65% 29.98 in
(1015 mb)
SE 6.9 mph
(SE 11 kph)
0.00 in
(0.00 mm)
10SM
Time Weather Temperature Dewpoint Humidity Pressure Winds Precip Visibility


Weather for websites

WeatherForYou.com, LLC is not responsible for any damages or problems caused by this service. Current weather conditions are obtained from the closest station including government and personal stations which may have varying degrees of accuracy. Weather forecasts are derived from the NOAA NDFD. Like all things, this site belongs to Jesus Christ... He just trusts me to maintain it. If you have any questions or comments email webmaster@weatherforyou.com

Copyright © 2015, WeatherForYou.com LLC. All rights reserved.